Forside
METAR-TAF:

METAR-TAF

Lufthavne :

Lawrence J. Timmerman Airport

Milwaukee, Wisconsin, USA

Breddekreds: 43-07N, længdekreds: 088-02W, højde: 227 m

Aktuelle vejr

Denne rapport blev lavet for 26 minutter siden, kl. 03:15 UTC
Vind 7 kt fra nordvest
Temperatur -8°C
Fugtighed 52%
Tryk 1018 hPa
Sigt: 16.1 km
skyfri

METAR: KMWC 280315Z AUTO 31007KT 10SM CLR M08/M16 A3005 RMK AO2

Tid: 21:41 (03:41 UTC)


TAF: fraværende

Vejrobservationer og prognoser fra mere end 4000 lufthavne (METAR og TAF).

De gule og røde prikker repræsenterer de meteorologiske stationer.

Flyt musen over at se navnet på stationen.

Så klik over at se vejr observationer og prognoser.

At skifte det kort: Klik på de grønne knapper med et sort kors for at zoome ind; på den grønne knap med en bindestreg for at zoome ud; eller på de grønne pile for tilstødende kort.


METAR-TAF: